Weather History for Waterloo, IA

Change the Weather History Date:

Wednesday, June 25, 2014

  Actual Average Record
Temperature  
Mean Temperature 72 °F 73 °F  
Max Temperature 84 °F 84 °F 104 °F (1931)
Min Temperature 60 °F 62 °F 42 °F (2004)
Degree Days  
Heating Degree Days 0 0  
Month to date heating degree days 7 23  
Since 1 June heating degree days 7 23  
Since 1 July heating degree days 8325 7027  
Cooling Degree Days 7 8  
Month to date cooling degree days 129 137  
Year to date cooling degree days 196 193  
Since 1 June cooling degree days 129 137  
Growing Degree Days 22 (Base 50)    
Moisture  
Dew Point 62 °F    
Average Humidity 72    
Maximum Humidity 100    
Minimum Humidity 44    
Precipitation  
Precipitation T in 0.17 in 1.94 in (2005)
Month to date precipitation 6.37 4.10  
Year to date precipitation 20.40 16.22  
Snow  
Snow 0.00 in 0.00 in - ()
Month to date snowfall 0.0 0.0  
Since 1 June snowfall 0.0 0.0  
Since 1 July snowfall 58.0 35.3  
Snow Depth 0.00 in    
Sea Level Pressure  
Sea Level Pressure 29.97 in    
Wind  
Wind Speed 5 mph (NNW)    
Max Wind Speed 16 mph    
Max Gust Speed 20 mph    
Visibility 10 miles    
Events      
T = Trace of Precipitation, MM = Missing Value Source: NWS Daily Summary

Daily Weather History Graph

Daily Weather History Graph

Search for Another Location

Airport:

Trip Planner

Search our weather history database for the weather conditions in past years. The results will help you decide how hot, cold, wet, or windy it might be!

Date:

Astronomy

Jun. 25, 2014 Rise Set
Actual Time 5:33 AM CDT 8:51 PM CDT
Civil Twilight 4:58 AM CDT 9:26 PM CDT
Nautical Twilight 4:13 AM CDT 10:11 PM CDT
Astronomical Twilight 3:17 AM CDT 11:06 PM CDT
Moon 4:27 AM CDT (6/25) 7:21 PM CDT (6/25)
Length of Visible Light 16h 27m
Length of Day
15h 17m
Waning Crescent, 3% of the Moon is Illuminated
Jun 25
Waning Crescent
Jun 27
New
Jul 5
First Quarter
Jul 12
Full
Jul 18
Last Quarter

Hourly Weather History & Observations

Time (CDT) Temp. Heat Index Dew Point Humidity Pressure Visibility Wind Dir Wind Speed Gust Speed Precip Events Conditions
12:54 AM 68.0 °F - 63.0 °F 84% 29.94 in 10.0 mi West 3.5 mph - N/A   Partly Cloudy
1:54 AM 66.0 °F - 63.0 °F 90% 29.93 in 10.0 mi Calm Calm - N/A   Clear
2:54 AM 64.0 °F - 62.1 °F 93% 29.94 in 10.0 mi NW 3.5 mph - N/A   Clear
3:54 AM 63.0 °F - 61.0 °F 93% 29.95 in 10.0 mi WNW 3.5 mph - N/A   Partly Cloudy
4:54 AM 63.0 °F - 61.0 °F 93% 29.95 in 10.0 mi WNW 3.5 mph - N/A   Clear
5:54 AM 61.0 °F - 60.1 °F 97% 29.96 in 5.0 mi Calm Calm - N/A   Clear
6:54 AM 66.0 °F - 63.0 °F 90% 29.97 in 10.0 mi West 3.5 mph - N/A   Clear
7:54 AM 70.0 °F - 63.0 °F 78% 29.99 in 10.0 mi NW 5.8 mph - N/A   Clear
8:54 AM 73.4 °F - 62.6 °F 69% 30.01 in 10.0 mi West 3.5 mph - N/A   Clear
9:54 AM 77.0 °F - 62.1 °F 60% 30.00 in 10.0 mi Variable 4.6 mph - N/A   Clear
10:54 AM 79.0 °F - 61.0 °F 54% 30.00 in 10.0 mi North 5.8 mph - N/A   Clear
11:54 AM 80.1 °F 81.5 °F 63.0 °F 56% 30.00 in 10.0 mi West 6.9 mph - N/A   Clear
12:54 PM 79.0 °F - 61.0 °F 54% 29.99 in 10.0 mi Calm Calm - N/A   Scattered Clouds
1:54 PM 82.9 °F 83.2 °F 60.1 °F 46% 29.98 in 10.0 mi WNW 4.6 mph - N/A   Partly Cloudy
2:54 PM 84.0 °F 84.4 °F 61.0 °F 46% 29.97 in 10.0 mi West 9.2 mph - N/A   Scattered Clouds
3:54 PM 79.0 °F - 63.0 °F 58% 29.98 in 10.0 mi North 10.4 mph - N/A   Overcast
4:54 PM 79.0 °F - 63.0 °F 58% 29.97 in 10.0 mi North 8.1 mph - N/A   Mostly Cloudy
5:54 PM 82.0 °F 82.7 °F 61.0 °F 49% 29.96 in 10.0 mi North 5.8 mph - 0.00 in   Partly Cloudy
6:54 PM 81.0 °F 81.9 °F 62.1 °F 52% 29.95 in 10.0 mi NNE 4.6 mph - N/A   Clear
7:54 PM 78.8 °F - 62.6 °F 57% 29.97 in 10.0 mi NE 4.6 mph - N/A   Clear
8:54 PM 73.4 °F - 64.4 °F 73% 29.97 in 10.0 mi NE 3.5 mph - N/A   Clear
9:54 PM 69.1 °F - 64.0 °F 84% 29.98 in 10.0 mi NE 5.8 mph - N/A   Clear
10:54 PM 68.0 °F - 64.0 °F 87% 29.99 in 10.0 mi East 4.6 mph - N/A   Clear
11:54 PM 68.0 °F - 64.4 °F 88% 30.02 in 10.0 mi East 3.5 mph - N/A   Partly Cloudy